GFSGBSN_sfc_thetae_198.txt.gz
Theta_e
320 320 320 320 320 320 320 320 321 321 321 321 321 321 321 321 321 321 322 321 321 321 321 322 323 324 321 312 310 325 354 355 335 319 316 317 316 314 307 312 326 324 330 326 329 328 332
319 319 318 319 320 320 320 320 320 320 320 320 321 321 321 321 321 321 321 320 320 320 321 322 323 324 313 301 319 326 325 325 319 314 316 318 318 319 312 310 317 329 327 324 327 326 331
318 318 318 318 319 319 320 320 320 320 320 320 321 320 321 321 320 320 320 319 319 320 322 322 323 324 315 308 322 323 316 313 314 315 314 319 320 312 310 309 330 326 320 319 321 326 323
318 318 318 318 317 318 319 319 320 320 320 320 320 320 320 320 319 319 319 318 318 321 324 324 325 319 306 318 318 316 319 316 317 315 315 319 319 313 308 312 313 321 318 309 319 324 326
318 318 317 317 318 319 319 319 320 320 319 319 319 320 319 319 319 318 317 317 319 325 327 327 314 312 305 325 316 316 317 316 317 315 316 323 316 308 309 303 301 310 305 311 316 325 327
318 317 317 319 319 319 319 319 319 319 319 319 319 318 318 318 317 316 315 317 320 322 322 325 322 307 312 312 312 315 315 319 316 315 314 311 307 302 301 299 294 300 305 312 313 321 323
318 318 319 319 319 319 319 319 319 319 319 319 318 318 317 317 316 315 311 311 312 310 314 306 306 310 314 319 317 313 316 314 311 309 304 307 301 298 302 303 305 304 303 304 318 324 321
318 318 319 319 319 319 319 319 318 318 318 318 318 317 317 316 315 313 309 307 314 311 304 314 313 312 316 314 310 312 315 309 306 303 304 301 298 305 308 308 305 303 301 302 314 324 319
318 319 319 319 319 319 318 318 318 318 317 317 317 316 316 314 313 309 309 313 317 318 304 308 313 311 312 313 310 310 311 307 307 303 303 299 304 309 307 305 304 304 298 302 303 314 321
319 319 319 319 319 318 318 317 317 317 317 316 316 316 315 312 310 312 313 318 317 318 297 303 305 312 316 316 309 313 312 309 307 304 304 301 308 307 306 303 303 293 306 306 306 301 296
319 319 318 318 318 318 317 317 317 317 316 316 316 315 313 311 304 308 319 313 315 309 290 310 305 318 315 309 307 310 312 310 306 306 303 301 305 304 303 305 307 301 307 306 307 301 297
319 319 319 319 318 317 316 316 316 316 315 315 314 313 312 308 305 311 314 314 311 298 292 305 308 309 307 306 308 311 310 310 311 306 304 305 310 307 306 310 308 308 304 301 300 297 291
318 318 318 318 318 317 316 316 316 315 314 313 312 310 308 314 313 318 317 312 298 292 307 304 301 304 303 301 305 307 305 302 301 296 296 303 305 308 309 304 309 301 293 288 289 289 290
318 318 318 318 317 316 316 316 315 314 314 312 309 308 308 313 314 317 315 305 293 304 304 307 307 304 301 302 301 304 302 299 303 301 297 295 296 303 308 305 304 298 294 288 285 286 291
318 318 318 317 317 316 316 316 315 314 313 311 308 307 310 317 316 316 309 297 298 303 308 306 306 302 299 305 305 301 300 300 304 305 299 295 298 309 308 309 304 298 294 296 290 291 289
317 317 317 317 317 316 316 315 314 314 312 310 307 312 316 324 320 314 305 299 303 311 311 307 300 304 299 302 303 302 300 303 303 307 305 300 296 305 308 306 303 301 301 292 288 287 286
317 317 317 317 317 316 316 315 314 313 311 310 312 313 320 324 318 310 300 301 309 314 312 306 303 301 302 301 302 302 302 308 312 309 307 300 299 299 303 299 299 297 294 293 291 291 287
317 316 316 316 317 316 316 315 313 311 309 308 309 310 319 319 306 304 302 308 310 311 311 309 308 306 304 305 302 304 304 307 315 311 304 304 297 294 300 305 305 300 297 292 289 288 290
316 316 316 316 316 316 315 314 313 311 309 302 305 309 318 316 300 302 305 306 305 305 307 308 307 308 306 302 299 304 307 312 313 312 310 308 296 291 295 301 303 301 302 294 294 289 289
317 316 316 316 316 316 315 314 312 311 310 305 308 302 305 307 304 300 299 300 301 308 307 307 305 305 302 299 300 301 302 307 309 311 324 312 298 295 291 295 300 299 302 301 297 291 291
316 316 316 316 316 316 315 314 313 311 310 308 305 301 304 298 300 301 299 301 302 301 304 304 302 302 299 294 297 297 301 301 305 314 307 305 298 299 302 306 307 305 305 305 298 297 294
317 316 316 316 316 316 316 315 313 311 310 309 301 300 302 301 302 301 299 298 302 302 301 300 300 303 301 294 297 295 296 295 297 301 300 304 296 300 299 307 307 304 306 307 306 304 302
317 316 316 316 316 316 316 315 314 312 309 306 308 308 304 301 300 298 298 302 303 303 304 305 304 301 299 301 303 299 299 299 299 296 296 296 297 295 291 304 304 300 303 304 305 307 306
317 316 315 315 315 316 316 316 315 313 310 303 307 305 301 298 300 301 304 306 304 303 301 305 304 301 305 307 305 303 302 300 301 299 298 294 292 293 289 295 290 301 308 310 306 308 313
317 316 315 314 314 315 315 316 315 314 312 303 307 306 300 296 302 303 303 304 302 301 302 304 305 305 306 303 297 293 293 294 297 300 298 297 293 289 288 290 296 300 304 306 303 305 318
317 316 316 315 314 314 315 315 315 314 313 303 304 310 303 298 298 304 301 302 296 295 298 302 305 306 304 298 295 288 288 293 293 297 299 296 295 293 289 287 286 297 312 317 309 297 315
316 316 316 315 314 314 314 314 314 315 313 306 304 308 304 297 300 301 297 298 301 298 295 298 301 302 302 295 292 290 290 297 291 290 292 293 294 290 289 289 293 308 313 315 297 298 314
316 316 316 315 314 313 313 313 314 313 314 308 303 307 304 298 300 304 306 300 300 298 294 297 297 299 296 293 293 292 292 294 292 294 294 293 292 291 292 290 289 312 312 303 308 311 314
316 316 316 315 315 313 313 313 313 313 313 311 299 306 306 301 301 306 308 309 307 306 300 298 298 297 298 294 293 293 291 291 290 287 298 293 299 298 299 297 305 311 313 316 315 313 314

GFSGBSN_sfc_thetae_201.txt.gz
Theta_e
319 319 319 319 320 320 320 320 320 320 321 321 321 321 320 321 321 321 321 321 321 320 320 322 323 324 319 307 307 319 355 354 338 320 314 313 314 312 308 311 320 320 329 326 329 329 330
318 318 318 318 318 319 319 320 320 320 320 320 320 320 320 320 320 321 321 320 320 320 320 322 323 324 311 299 314 322 331 322 319 312 312 314 315 317 312 307 310 329 329 325 327 327 331
318 318 318 318 317 318 319 319 320 320 320 319 319 320 320 320 320 320 320 319 319 319 321 322 323 323 312 304 320 318 316 311 311 311 311 316 318 312 310 306 329 325 319 319 320 325 325
318 318 317 318 319 319 319 319 319 320 319 319 319 319 319 319 319 319 318 318 318 320 323 323 325 316 303 313 317 316 314 313 315 311 313 316 317 312 307 309 310 319 317 309 317 324 325
318 318 319 319 320 320 320 320 320 319 319 319 319 318 318 318 318 317 317 317 319 323 326 326 312 308 302 321 315 316 314 314 313 313 311 320 314 307 306 301 298 303 301 309 313 324 324
318 319 319 319 320 320 319 319 319 319 319 318 318 318 318 317 317 316 314 316 323 322 324 325 322 305 308 308 312 312 312 314 313 313 313 310 304 301 299 298 293 298 298 305 308 318 322
319 319 319 319 319 319 319 319 319 318 318 318 318 317 317 317 314 314 309 310 310 306 312 303 303 305 312 315 316 310 313 312 311 309 303 305 300 297 300 301 302 300 299 300 305 313 319
319 319 319 319 319 319 318 318 318 318 318 318 317 317 316 315 313 312 308 305 309 310 303 311 311 310 311 311 309 311 313 308 305 301 302 300 297 303 305 304 302 300 299 300 305 320 318
318 318 319 319 319 318 318 317 317 317 317 317 316 316 315 313 312 308 306 310 314 314 303 307 310 309 309 311 308 309 310 307 303 301 301 298 303 307 304 302 301 301 297 300 301 310 319
319 319 318 318 318 318 317 317 317 317 316 316 316 315 314 312 308 309 310 314 314 314 296 301 304 310 312 313 307 315 312 307 304 302 302 300 306 305 303 301 301 294 305 303 303 299 298
318 318 318 318 318 318 317 317 317 316 316 315 315 314 313 310 303 307 315 311 312 307 289 307 303 314 311 307 305 307 310 308 302 304 303 301 302 302 301 303 304 300 306 304 303 298 295
318 318 318 318 318 317 317 316 316 316 315 315 314 313 311 307 304 309 313 313 308 297 292 304 307 306 307 305 306 308 305 309 309 304 302 303 306 305 304 307 306 308 302 299 297 294 289
318 318 318 318 317 317 316 316 316 315 314 313 312 310 308 313 311 315 315 309 297 292 305 303 300 304 301 299 303 305 302 300 299 294 295 300 303 304 307 302 304 298 293 288 288 287 288
317 317 317 317 317 316 316 316 315 314 314 312 309 308 308 311 311 315 312 304 292 302 302 306 305 301 300 299 299 301 301 298 300 298 294 294 295 302 305 303 300 298 294 289 284 285 289
317 317 317 316 316 316 316 315 314 313 312 311 308 307 307 313 312 312 308 296 296 301 306 306 304 301 299 304 303 302 297 296 300 301 297 292 295 305 306 305 304 297 292 294 288 286 287
317 317 317 316 316 316 316 315 314 313 312 310 308 311 313 319 317 312 304 297 301 307 309 304 298 302 297 300 302 300 300 306 307 306 301 298 294 303 306 305 303 300 299 291 287 285 283
317 317 316 316 316 316 316 315 313 312 310 309 312 312 317 318 316 308 298 299 306 312 311 304 301 300 300 300 301 300 302 306 310 309 305 299 295 298 300 298 299 297 293 290 290 288 285
317 316 316 316 316 316 316 315 313 311 309 307 309 308 317 315 305 301 300 305 307 304 307 307 306 304 302 301 300 300 300 303 310 311 304 304 295 292 298 302 303 297 293 291 288 287 287
317 317 316 316 316 316 316 314 312 310 309 303 305 307 315 313 299 297 300 303 303 304 303 305 302 303 303 298 296 301 301 306 308 311 305 307 296 290 294 298 304 300 299 291 290 288 287
317 317 316 316 316 316 315 314 312 310 310 307 306 300 304 303 300 298 297 298 299 307 303 305 301 301 299 296 298 297 299 305 306 307 321 310 298 295 291 295 300 299 304 302 295 291 290
317 317 316 316 316 316 315 314 312 310 310 305 302 299 301 297 299 300 297 299 300 299 302 302 300 300 297 293 295 295 298 299 304 311 305 303 297 297 299 303 304 305 304 305 299 296 294
317 317 317 316 316 316 316 315 313 311 310 307 300 298 300 298 300 297 297 297 299 301 300 298 298 301 298 293 294 294 294 293 296 300 298 300 292 296 294 301 304 302 303 305 305 304 298
317 317 316 316 316 316 316 315 314 311 308 305 305 304 302 299 297 296 296 300 302 302 302 304 303 300 298 301 302 300 298 299 299 296 295 294 293 293 287 298 297 290 299 305 304 305 303
317 317 316 315 315 315 316 316 315 313 309 302 304 303 299 295 298 300 303 304 302 301 300 303 303 299 303 305 303 299 298 298 298 297 296 293 291 291 286 290 284 292 306 307 307 314 315
317 317 316 316 315 315 315 315 315 314 312 303 304 303 298 293 299 301 301 302 300 299 299 301 303 304 303 300 295 292 292 293 295 297 293 294 291 288 286 287 291 296 299 300 302 305 315
317 316 316 316 315 314 314 315 315 314 312 302 303 305 301 296 295 302 298 299 295 294 297 299 303 303 302 296 293 286 286 290 291 295 294 293 292 291 286 285 284 294 308 313 311 296 314
316 316 316 316 315 314 314 314 314 314 312 303 302 304 302 296 299 300 296 296 300 296 293 295 299 299 299 293 291 288 289 295 289 289 290 292 292 290 288 287 290 305 308 313 295 295 313
316 316 316 316 315 314 314 313 314 313 313 305 301 304 301 296 298 303 304 299 298 296 293 295 295 297 295 290 291 290 290 292 289 292 289 290 290 289 290 286 287 307 308 301 305 310 313
315 316 316 315 315 314 314 313 313 313 312 308 296 302 303 298 298 303 307 308 305 304 298 296 296 296 297 292 291 291 290 290 287 285 294 290 295 292 294 293 302 306 308 311 313 310 313

GFSGBSN_sfc_thetae_207.txt.gz
Theta_e
319 318 319 320 320 320 320 320 320 320 320 320 320 320 319 319 319 321 321 321 321 321 321 322 322 325 322 310 312 322 354 352 335 323 321 318 320 319 314 315 316 317 326 330 329 330 331
318 319 319 320 320 320 320 320 320 320 320 320 319 318 317 318 318 320 320 320 320 320 321 322 324 325 315 307 319 328 338 327 324 321 319 318 320 321 317 314 317 326 328 329 327 327 331
320 319 319 320 320 319 319 319 319 319 319 319 318 317 317 317 317 317 317 318 318 319 321 322 324 324 312 311 319 321 318 320 321 321 318 319 322 318 317 314 323 325 318 320 323 324 326
318 319 320 319 319 319 319 319 319 319 318 318 317 317 317 317 317 316 315 315 317 321 322 324 325 320 307 314 319 320 319 316 318 319 320 321 322 317 316 315 312 313 317 311 316 322 326
318 319 319 319 320 319 319 319 318 318 318 318 317 316 316 316 316 314 313 315 320 325 326 325 318 313 307 322 315 318 319 318 318 317 318 320 319 313 314 310 309 310 305 306 309 321 324
319 319 319 319 319 319 319 318 318 318 318 317 316 316 315 315 315 313 313 316 325 326 325 326 322 311 313 312 316 317 317 319 317 318 317 316 314 313 311 309 301 303 303 305 306 311 317
319 319 318 318 319 319 318 318 318 318 317 316 316 315 316 315 313 312 312 319 316 313 317 307 307 307 311 317 320 313 316 316 317 315 311 311 310 307 308 308 308 306 305 304 309 312 311
318 318 318 318 319 318 318 318 318 318 316 316 315 315 314 313 312 312 311 312 314 315 311 314 311 310 312 315 312 314 316 314 311 309 309 309 306 311 309 308 306 306 305 306 309 311 311
318 318 318 318 318 318 318 318 317 317 316 315 314 314 313 312 311 309 310 313 318 318 312 312 313 312 313 315 312 312 314 312 310 307 307 306 308 309 308 307 306 307 305 305 305 309 315
318 318 318 318 318 318 317 317 317 317 316 314 315 314 312 311 309 313 314 318 319 318 306 306 309 313 313 313 310 316 315 315 309 307 306 307 311 308 308 306 308 305 308 307 306 305 302
318 318 318 318 317 317 317 316 316 316 315 314 313 313 311 309 313 314 317 319 316 313 297 309 309 318 314 311 311 312 314 313 308 307 308 306 307 306 305 307 309 306 309 307 307 305 303
318 318 318 318 317 317 316 316 316 315 315 313 313 311 311 308 310 314 318 318 315 304 297 306 310 310 309 311 310 309 312 315 312 308 308 308 310 309 309 309 309 311 308 307 304 304 299
318 318 318 317 317 316 316 316 316 315 314 313 311 310 310 313 315 319 319 316 304 301 309 306 306 309 307 307 307 308 308 308 306 302 302 306 307 311 311 308 310 308 305 300 299 299 298
319 318 317 316 316 316 316 316 315 314 313 311 308 308 311 314 318 317 318 312 300 304 306 311 307 306 304 306 307 305 305 304 305 305 303 300 299 307 309 309 307 306 306 300 294 296 299
318 318 318 316 316 316 316 315 314 313 312 310 308 314 316 321 317 316 316 303 303 306 309 309 308 306 307 309 309 307 308 307 307 306 302 301 301 308 309 311 311 305 302 305 300 297 297
318 318 318 317 316 316 316 315 314 313 311 310 318 322 321 321 319 320 313 300 306 310 311 310 304 306 304 307 308 307 306 308 308 312 309 305 300 307 308 310 308 308 308 300 301 296 294
318 318 318 317 316 316 316 315 314 312 310 309 322 319 322 322 320 316 306 305 309 313 310 309 306 306 306 306 307 306 304 307 308 311 311 310 303 307 308 307 306 304 303 301 302 300 297
318 318 317 317 316 316 316 315 313 311 309 311 319 314 322 319 314 309 309 308 304 307 310 309 309 309 307 305 307 306 305 305 308 312 307 311 307 303 307 309 308 307 305 304 301 300 298
316 318 318 317 316 316 316 314 312 310 309 313 316 316 319 318 306 306 307 305 306 306 305 306 305 306 307 304 304 305 305 308 308 309 307 311 306 300 302 307 311 309 311 304 300 301 300
316 317 318 317 316 316 316 314 312 310 310 313 312 311 313 310 308 306 304 304 303 307 305 306 305 306 305 303 304 304 303 306 307 308 315 315 307 303 298 303 307 306 308 310 307 302 303
316 316 318 317 317 316 316 314 312 310 310 313 308 304 305 306 306 305 304 303 302 302 306 307 305 304 303 301 301 302 303 304 306 311 309 306 300 302 302 303 304 305 305 305 306 308 303
316 316 316 317 317 316 316 315 313 310 309 312 308 307 308 306 304 304 302 303 302 303 304 303 303 304 304 302 303 301 302 303 303 305 305 306 300 302 299 301 301 298 301 302 303 305 306
316 317 317 316 316 316 316 315 314 311 311 311 310 310 308 300 303 304 304 304 303 304 305 307 305 304 303 305 307 308 309 308 307 304 304 303 301 299 294 298 299 295 300 301 303 306 306
316 317 316 315 315 316 316 315 315 312 309 311 309 308 305 300 304 304 304 304 303 304 303 305 307 305 307 310 310 307 305 305 304 304 304 302 300 299 295 297 288 298 305 308 305 309 313
316 316 315 315 315 315 316 316 315 313 311 309 308 309 306 300 303 303 303 302 304 304 304 304 306 307 309 307 303 299 300 300 301 302 302 303 301 297 294 294 297 300 306 307 306 306 317
315 315 316 316 316 315 315 315 315 314 311 310 307 309 308 303 301 304 302 302 301 303 303 304 307 309 308 305 302 294 293 296 295 299 303 301 302 299 295 291 289 300 306 310 312 303 311
315 315 316 316 316 315 315 315 314 314 312 308 307 307 308 303 305 305 303 302 305 303 302 302 304 305 306 303 298 296 296 299 295 295 297 299 300 297 296 293 297 305 307 313 300 300 310
314 315 315 315 316 315 315 315 314 314 313 307 306 307 306 304 304 306 307 304 304 304 301 302 302 303 304 300 300 300 298 300 297 299 299 297 295 295 298 294 290 308 306 299 307 311 311
313 314 314 315 315 315 315 315 314 313 312 309 305 306 306 304 305 306 309 310 309 308 305 304 303 303 306 301 301 301 298 299 296 293 300 294 299 299 300 299 309 308 307 311 312 310 310

GFSGBSN_sfc_thetae_210.txt.gz
Theta_e
320 320 320 320 321 320 320 320 321 321 321 320 320 319 318 318 319 319 321 321 321 321 322 323 324 325 326 318 319 328 354 349 332 329 327 325 323 322 318 320 322 320 322 326 329 331 332
320 319 319 320 320 320 320 320 320 320 320 319 319 318 318 318 318 318 318 318 319 320 321 323 324 325 321 313 324 333 336 333 329 328 326 325 323 324 320 319 320 322 323 323 325 327 330
319 320 320 320 320 319 320 319 319 319 319 318 317 317 317 317 317 317 317 316 317 319 321 323 325 327 316 317 325 325 326 327 329 329 325 326 327 323 322 318 319 319 318 319 321 324 325
319 320 320 320 320 319 319 319 319 319 318 317 317 317 317 317 317 316 315 315 317 321 323 324 326 325 314 319 323 322 325 323 327 328 326 327 327 323 320 321 319 316 319 312 317 321 325
320 320 319 319 320 320 319 319 319 318 317 317 317 316 316 316 316 315 314 315 321 325 326 326 325 319 311 323 317 323 325 323 323 324 325 323 325 321 320 315 314 315 310 310 312 318 321
319 319 319 319 319 319 319 319 319 318 317 316 316 316 316 315 315 314 313 316 325 327 326 327 323 315 315 313 318 321 324 326 323 323 321 321 320 317 316 313 307 309 309 310 310 315 316
318 318 318 319 319 319 319 319 318 317 317 317 316 315 315 315 314 313 317 326 321 319 317 312 313 312 316 321 324 318 322 322 323 320 314 318 313 310 312 313 312 311 311 310 313 315 315
318 318 318 319 319 319 318 318 318 317 317 316 315 315 314 314 313 312 317 319 320 321 316 319 316 314 317 319 315 316 322 318 317 312 315 313 309 315 315 314 311 311 310 310 314 316 315
319 319 319 319 318 318 318 318 317 317 317 316 315 315 314 313 312 313 318 319 325 325 317 317 318 317 317 318 315 316 319 319 315 312 311 309 311 313 312 311 309 311 311 310 310 314 315
319 319 318 318 318 318 317 317 317 317 316 315 315 314 313 312 310 321 318 324 327 326 313 311 314 317 318 319 314 320 320 319 314 310 311 310 314 311 311 309 312 309 313 311 310 310 306
319 319 318 318 317 317 317 317 317 316 315 315 314 313 312 309 324 323 324 329 327 324 300 312 313 322 319 315 316 316 320 318 312 311 311 308 310 310 309 310 313 311 313 312 312 310 309
319 319 319 318 317 317 317 316 316 316 315 314 313 312 311 312 320 323 327 327 323 309 300 309 313 313 313 315 314 316 314 318 317 312 313 312 316 313 312 313 313 314 312 313 313 310 303
319 319 319 318 317 317 316 316 316 315 314 313 311 311 312 321 323 328 328 323 309 305 313 309 310 312 312 311 311 314 312 311 309 306 307 311 311 314 315 311 314 313 309 303 302 303 302
319 319 318 318 317 316 316 316 315 314 313 311 308 309 314 323 330 327 325 316 305 309 310 315 311 312 309 312 311 311 311 310 313 311 308 306 304 311 314 313 310 311 310 303 297 299 303
319 319 318 318 317 316 316 316 315 314 312 310 308 325 327 331 329 327 321 308 310 311 313 311 312 309 309 311 312 311 311 312 312 313 307 307 306 312 314 316 314 311 307 312 306 307 303
318 319 318 318 317 316 316 315 314 313 312 310 330 329 329 329 330 326 316 305 312 314 314 314 309 311 308 310 311 311 312 314 313 316 316 311 305 312 313 315 315 312 315 306 307 299 298
317 318 318 318 317 316 316 315 314 312 311 310 329 323 328 331 328 321 310 312 313 315 315 313 311 310 311 310 312 311 311 312 313 315 317 315 312 310 314 313 311 310 309 309 309 307 301
317 317 318 317 317 316 316 315 313 311 309 312 329 318 330 329 317 320 313 313 305 312 316 315 315 314 312 311 311 311 310 312 313 315 312 316 312 307 309 316 317 315 312 312 305 304 307
317 316 317 317 317 316 316 315 313 310 309 322 327 324 330 326 311 312 313 310 311 311 312 313 311 313 314 312 309 311 311 311 312 314 312 314 309 303 305 310 314 311 313 314 312 310 305
317 317 317 317 317 317 316 314 312 311 310 319 322 316 322 325 321 315 312 310 309 311 311 312 311 313 312 311 313 310 310 310 311 312 317 314 308 305 301 304 309 309 311 313 313 307 307
317 317 317 316 317 317 316 314 312 311 310 319 319 314 314 315 316 316 313 310 308 308 311 312 310 309 309 307 308 307 309 310 311 310 311 310 304 306 306 306 305 305 305 307 308 311 307
316 317 317 316 316 317 316 315 313 311 309 319 314 315 317 317 312 312 306 310 308 308 309 308 308 308 309 307 308 306 308 308 307 310 309 311 303 305 303 305 305 302 304 304 305 306 306
316 317 317 317 316 316 316 316 314 311 312 316 319 319 315 305 310 310 312 310 308 309 310 311 309 309 308 309 312 313 313 312 311 309 308 308 306 304 300 303 303 299 304 305 306 307 306
316 316 316 316 316 315 317 316 315 312 310 317 315 316 311 307 310 311 308 309 308 309 309 310 311 310 312 315 314 313 311 309 309 309 311 307 306 304 299 302 293 303 308 308 307 308 314
315 316 316 317 317 315 316 316 316 314 311 315 315 315 311 308 309 306 307 307 309 310 309 309 310 312 314 311 305 304 304 305 306 308 308 310 306 301 298 298 301 303 306 307 307 308 316
315 315 316 316 316 316 316 316 316 314 312 318 314 316 315 308 307 309 308 307 306 307 307 308 313 315 312 308 305 299 298 301 299 303 308 308 309 304 301 295 293 305 309 313 315 304 314
315 315 315 315 316 316 315 316 315 315 313 314 314 316 314 309 311 310 308 307 310 308 307 309 309 310 311 307 302 301 300 303 298 298 301 303 304 300 300 298 301 310 310 313 300 303 313
314 315 315 315 316 316 315 315 315 314 314 313 313 316 312 310 312 311 311 309 310 310 305 309 307 309 309 303 303 305 302 305 302 304 303 302 300 300 301 298 295 311 309 303 309 313 313
313 314 315 315 316 316 315 315 315 314 313 312 314 317 315 311 312 314 314 315 314 313 310 312 309 308 310 306 306 306 301 304 302 297 307 299 303 301 302 302 312 313 310 312 313 312 313

GFSGBSN_sfc_thetae_216.txt.gz
Theta_e
321 321 321 321 321 321 321 321 321 321 321 321 321 319 320 320 319 320 320 321 321 321 322 323 326 328 324 322 322 333 356 350 336 330 327 328 324 324 320 321 324 321 322 325 326 325 327
321 321 321 321 321 321 320 320 320 320 319 319 319 319 319 319 319 319 320 320 319 320 321 324 326 327 324 316 330 336 335 333 329 328 329 329 325 325 322 322 321 323 323 322 322 323 326
320 320 321 321 321 320 320 320 320 320 319 318 318 318 318 318 319 319 319 319 319 320 322 325 327 327 321 321 330 331 332 330 330 331 328 330 328 324 324 320 324 323 318 321 321 320 321
320 320 320 320 320 320 320 320 320 318 318 318 318 318 318 318 318 318 318 318 318 321 325 328 328 325 318 330 331 328 331 328 332 333 331 331 330 325 323 324 321 318 319 314 319 319 320
321 321 320 320 320 320 320 320 319 318 318 318 318 317 317 317 317 318 317 317 319 325 330 330 324 321 317 327 322 327 330 325 327 329 330 330 327 323 322 317 314 316 311 314 313 319 318
321 321 321 321 320 320 320 320 319 318 317 317 317 317 317 316 317 316 316 316 324 323 328 328 325 319 320 317 321 325 329 327 323 323 322 322 320 317 317 314 307 310 311 312 311 316 317
322 321 321 320 320 320 319 319 319 319 317 317 317 316 316 316 317 316 316 324 319 317 322 314 315 317 316 321 325 322 326 324 323 321 314 319 314 311 314 316 316 314 311 310 314 317 315
321 321 321 320 320 319 319 319 319 318 318 317 317 316 316 316 316 315 316 322 324 327 317 319 319 317 321 322 316 319 326 318 318 313 317 314 311 316 316 316 314 312 310 310 314 317 315
321 321 320 320 320 319 319 318 318 317 317 317 317 316 316 315 315 314 317 321 330 329 318 319 317 316 317 319 316 316 321 319 316 313 313 311 313 317 314 313 311 311 309 309 311 315 315
321 320 320 320 319 319 318 318 318 317 316 316 316 315 315 314 308 319 317 324 328 329 314 316 316 318 319 318 313 322 322 319 316 312 314 313 316 313 312 310 311 306 313 313 312 310 305
320 320 320 319 319 319 318 317 317 317 316 315 315 315 315 311 319 323 327 331 330 328 304 316 316 325 321 315 318 317 323 318 313 314 313 309 312 311 309 310 313 309 314 313 313 309 309
319 320 320 320 319 318 317 317 317 316 315 314 314 314 314 314 320 329 332 332 328 310 301 312 318 315 314 314 317 318 317 319 320 314 315 313 317 315 313 315 315 315 312 312 312 310 303
319 318 319 319 319 318 317 317 316 315 314 313 312 313 313 325 327 332 332 326 310 304 315 311 312 314 313 311 313 315 313 311 309 306 307 313 313 316 316 312 315 313 309 302 302 302 301
318 318 318 318 318 317 317 317 316 315 314 312 311 310 314 321 331 333 329 317 306 312 312 317 315 313 309 313 314 314 312 309 313 312 309 307 305 314 317 314 311 312 311 304 299 299 302
318 318 318 317 317 317 317 316 315 314 313 311 309 321 327 329 329 332 323 310 310 315 317 314 314 310 310 314 314 313 313 312 314 315 309 308 308 317 316 317 315 311 308 314 307 307 303
317 317 317 317 317 317 317 316 315 314 312 311 325 331 329 333 334 328 318 308 316 320 319 317 310 312 309 311 311 311 312 316 314 317 319 313 306 314 316 317 316 313 315 306 307 301 299
317 317 317 317 317 317 317 316 315 313 311 311 325 326 331 332 331 322 312 314 317 320 320 315 314 313 313 313 313 312 312 317 318 317 319 316 311 310 315 312 312 312 310 311 311 307 301
316 316 316 316 316 317 317 316 314 312 310 311 327 322 330 330 316 316 313 317 309 317 319 318 318 317 315 315 313 312 312 316 319 319 313 316 312 308 310 316 316 314 312 312 307 306 307
316 316 316 316 316 317 317 316 314 311 310 318 324 328 331 325 312 316 317 316 316 314 316 316 314 316 318 315 311 314 315 318 318 317 314 316 311 304 305 310 314 311 313 313 312 310 307
317 317 316 316 316 317 317 315 314 312 310 316 324 318 323 322 323 318 316 313 312 315 315 317 316 317 315 312 315 312 313 317 318 317 324 319 310 306 301 305 309 307 309 312 311 306 306
317 317 316 316 316 317 317 316 314 312 311 318 323 320 325 318 318 318 317 317 313 312 315 316 314 313 313 311 312 313 315 316 317 319 316 312 305 307 308 309 308 307 307 308 306 307 303
317 317 317 316 316 317 317 316 315 313 310 323 318 317 321 320 320 319 311 314 314 315 314 314 313 315 314 311 312 310 313 314 313 315 314 314 306 308 306 309 309 306 308 308 308 308 307
317 317 317 317 317 316 317 316 315 313 313 320 320 324 318 312 317 315 315 317 315 316 316 316 314 314 312 314 316 317 317 315 314 312 311 310 308 306 302 307 307 302 307 308 308 310 309
316 316 317 318 318 316 317 317 316 315 312 319 319 320 317 310 315 314 315 315 314 314 313 316 315 313 316 320 318 316 314 312 312 311 313 309 308 307 301 305 296 307 313 311 308 309 310
316 315 316 317 318 317 317 317 317 316 314 318 321 319 317 313 312 311 311 311 313 314 313 311 314 318 319 314 308 306 307 309 310 312 312 312 309 303 300 299 304 306 309 310 308 307 315
315 315 315 317 317 317 316 317 317 316 314 319 321 322 319 314 312 314 311 312 309 311 312 313 317 319 316 310 307 302 300 305 304 308 314 312 312 305 303 298 295 306 312 315 314 303 316
314 314 315 316 317 318 318 317 317 317 315 315 322 324 319 314 317 315 313 312 315 313 310 314 314 313 315 309 304 303 303 309 303 303 305 306 307 304 302 300 303 311 314 315 301 304 314
314 314 315 316 316 317 318 317 317 317 316 315 322 326 317 315 317 316 315 314 316 314 309 314 312 313 312 307 306 307 305 307 306 308 306 304 302 302 303 300 297 314 311 306 312 315 315
314 314 315 316 316 316 317 317 317 317 316 316 319 324 324 316 317 318 317 318 317 317 313 314 313 313 314 309 309 309 306 307 306 300 310 302 306 304 305 304 314 314 313 315 315 314 315

GFSGBSN_sfc_thetae_219.txt.gz
Theta_e
322 322 322 322 322 322 321 321 321 321 320 319 319 319 320 320 320 320 320 321 321 321 322 323 325 328 321 314 317 330 357 351 335 328 321 321 319 316 313 316 321 318 322 324 327 327 326
321 321 321 321 322 321 320 320 320 320 319 318 318 318 318 318 319 320 320 321 320 320 321 324 327 328 319 309 327 330 339 333 328 323 321 323 321 320 316 316 314 322 322 320 322 322 325
321 321 321 321 321 321 320 320 320 318 318 318 318 318 318 318 319 319 319 319 319 320 321 325 328 325 316 315 328 325 325 324 323 321 320 325 323 318 317 313 321 319 315 317 318 319 320
322 322 321 321 321 321 320 320 319 318 318 317 317 318 317 318 318 319 319 318 318 320 323 328 329 320 311 326 326 325 323 323 324 325 323 324 324 319 315 318 317 314 315 312 317 318 321
322 322 321 321 321 320 320 320 319 318 317 317 317 317 317 317 318 318 317 317 319 323 327 330 320 315 308 327 318 321 321 321 322 322 323 329 319 314 316 309 306 311 307 311 315 319 317
322 322 321 321 321 320 320 319 319 317 317 317 317 317 317 316 317 317 316 316 321 320 325 326 323 310 316 314 318 320 321 323 318 319 318 316 312 307 308 305 299 305 306 311 308 313 314
322 322 321 321 321 320 319 319 319 317 318 317 316 317 316 316 316 316 314 317 312 311 315 308 309 315 315 319 320 318 322 319 317 312 306 311 303 301 307 308 308 307 305 305 309 315 313
322 321 321 321 320 320 319 319 318 317 316 316 316 316 315 316 316 315 311 314 321 317 309 316 314 314 316 315 312 315 317 313 311 306 310 306 302 310 314 311 308 306 304 304 310 315 310
320 321 320 320 320 319 319 318 318 317 316 315 315 315 315 316 315 310 312 312 320 319 309 316 315 312 311 312 310 311 314 313 310 307 308 303 308 314 311 307 306 303 301 304 305 311 311
319 319 319 320 319 319 318 318 318 317 315 315 315 315 315 315 307 315 311 315 316 317 304 311 309 311 312 312 307 317 317 313 310 307 308 306 312 311 306 305 304 300 308 309 309 303 298
319 318 318 319 319 319 318 318 317 317 316 315 314 314 315 313 310 318 322 321 321 317 297 312 312 319 315 309 310 311 319 312 306 309 305 304 307 306 305 306 308 303 310 309 309 303 299
318 318 318 318 319 318 318 317 317 316 315 315 313 313 314 312 312 317 325 325 320 304 298 310 314 310 308 309 311 314 312 312 313 309 309 308 313 309 308 311 310 311 307 306 304 300 294
318 318 318 317 317 317 317 317 316 316 315 313 312 312 312 318 319 327 328 320 303 298 314 309 308 311 308 305 308 311 309 304 301 297 299 306 308 311 311 304 308 306 299 292 293 293 292
317 317 317 317 316 317 317 317 316 315 314 312 311 310 312 315 320 318 323 311 300 310 308 314 312 310 306 308 306 308 308 303 306 304 301 298 300 309 311 307 304 304 300 294 289 291 297
317 316 317 316 316 317 317 317 315 315 313 311 309 314 317 323 320 320 316 303 305 311 315 313 310 306 304 308 308 308 307 306 308 307 298 300 304 314 313 312 308 303 298 303 296 296 294
316 316 316 316 316 317 317 316 315 314 313 311 319 325 326 330 326 322 313 305 311 317 317 314 307 309 304 306 306 306 306 310 310 314 311 304 299 308 312 312 310 305 308 298 297 291 290
316 316 316 316 316 317 317 316 315 314 312 310 320 320 330 332 327 317 307 309 314 318 317 313 310 310 311 309 309 306 306 313 316 314 313 306 304 304 310 304 303 306 303 303 301 300 293
317 317 316 316 316 317 317 316 315 312 310 312 322 318 326 327 313 313 309 313 311 316 316 313 314 313 311 312 311 310 309 312 317 315 308 308 302 298 303 310 312 307 301 301 301 297 301
317 317 316 316 316 317 317 316 314 312 310 309 317 323 326 323 306 308 313 313 316 313 312 313 312 314 313 310 307 310 312 315 317 314 307 307 302 295 298 302 304 303 305 303 302 302 298
317 317 317 316 316 317 317 316 314 312 311 309 318 317 321 318 315 311 312 313 311 314 312 313 312 313 310 308 309 307 309 315 316 313 324 313 300 298 293 297 302 300 304 304 298 294 295
317 317 317 317 316 316 317 316 315 313 311 312 321 317 319 313 313 313 315 315 313 310 313 314 311 311 309 304 308 308 310 312 314 320 311 305 297 299 301 304 305 304 304 304 300 299 294
317 317 317 317 317 316 317 316 315 313 311 320 314 313 316 312 315 318 311 313 312 314 315 312 311 313 313 307 307 306 308 307 307 310 307 307 300 302 300 305 305 303 305 305 304 304 302
317 316 317 317 318 317 317 317 316 314 312 318 317 319 316 311 311 311 311 315 314 316 315 315 313 311 310 311 312 311 310 309 307 303 302 302 299 298 294 302 302 297 302 304 305 305 302
316 316 316 317 318 318 317 317 316 315 313 313 318 316 315 309 311 311 313 313 312 312 311 314 314 312 313 314 311 309 307 306 306 305 304 299 300 299 295 297 290 301 308 309 307 309 310
316 316 316 316 317 317 317 317 317 316 314 313 321 316 315 310 312 311 310 310 311 312 313 312 313 313 313 309 302 301 300 302 306 308 305 304 301 296 293 292 298 303 307 307 303 306 312
316 315 315 316 317 317 317 318 317 316 315 315 322 322 318 313 308 313 310 312 307 307 309 311 316 315 312 305 302 296 295 301 301 305 306 306 305 299 295 292 290 301 309 312 309 300 311
316 315 315 315 316 317 318 318 318 318 315 313 319 323 318 313 314 313 309 309 312 309 307 312 312 311 310 304 301 299 299 306 299 299 300 302 303 299 298 298 301 309 310 312 297 298 309
316 315 315 315 316 317 318 318 318 317 317 314 319 326 317 312 315 315 315 312 313 312 306 309 309 311 310 304 303 302 301 303 300 303 301 298 296 296 296 294 293 310 309 302 306 312 310
315 315 315 315 316 316 317 318 317 317 317 316 318 323 323 316 316 320 317 317 317 316 308 309 308 310 311 306 306 305 301 301 300 295 305 296 302 299 300 299 308 310 308 310 310 308 310